Temp
16 16 16 17 17 17 17 18 18 18 17 15 15 15 15 16 16 16 16 16 15 16 16 15 15 15 15 16 16 16 16 16 16 16 15 15 15 15 15 16 16 16
16 16 16 16 16 17 17 17 18 18 18 17 15 15 15 16 16 17 17 17 17 16 16 15 15 14 15 15 15 16 16 16 16 16 15 15 15 15 16 16 16 16
15 15 16 16 16 17 18 18 18 18 18 18 17 16 16 16 17 17 18 18 17 17 17 16 15 15 15 15 15 15 15 16 16 16 15 15 15 15 15 16 16 16
15 15 15 15 15 17 18 18 18 18 18 18 17 17 16 16 17 17 18 18 17 17 17 16 16 15 15 15 15 15 15 15 16 16 16 15 15 15 15 15 15 16
15 15 15 15 15 17 18 19 19 18 18 17 17 17 16 16 17 17 18 18 17 17 16 16 15 15 15 15 15 15 15 15 15 16 15 15 15 15 15 15 15 15
14 14 15 15 15 16 18 19 19 18 18 17 17 17 17 17 18 18 18 18 18 17 17 17 16 15 15 16 16 16 15 15 15 15 15 15 15 15 15 15 16 16
15 14 15 15 15 15 16 17 17 17 18 17 17 17 17 17 18 18 18 19 19 18 17 17 17 17 16 16 17 17 16 15 15 15 15 15 15 15 15 15 16 16
14 14 14 14 14 15 15 16 16 16 17 17 16 16 16 17 17 17 18 20 19 18 18 18 18 18 18 18 18 18 18 17 16 15 15 15 15 15 15 15 16 16
14 14 14 14 14 15 15 15 16 16 16 16 16 16 16 16 17 17 18 19 19 18 18 18 18 19 19 19 19 19 18 18 17 16 15 15 15 15 15 15 15 16
14 14 14 14 14 15 15 15 16 16 15 15 15 15 16 16 17 17 17 18 18 18 18 18 18 18 19 19 20 20 19 19 18 17 16 15 15 15 15 15 15 16
14 14 14 14 14 14 14 15 15 15 15 15 15 15 16 16 16 16 16 16 17 17 18 18 18 18 18 20 21 20 20 19 18 18 18 17 16 15 15 15 15 16
13 13 13 14 14 14 14 14 14 14 14 15 15 15 16 16 16 15 15 16 16 17 17 17 17 17 17 19 20 20 20 20 19 18 18 18 18 17 15 15 15 16
13 13 13 13 13 13 14 14 14 14 14 14 15 15 15 15 16 15 15 16 16 16 16 17 17 17 17 17 18 19 19 19 19 19 18 18 18 18 17 16 15 15
12 12 12 12 13 13 13 13 13 13 14 14 14 14 15 15 15 16 16 16 16 16 16 16 16 16 16 16 17 17 18 18 18 19 19 18 18 18 19 18 16 15
11 12 12 12 12 12 13 13 13 13 13 14 14 14 14 15 15 15 15 16 16 16 16 16 16 16 16 16 16 17 17 17 17 18 18 19 19 18 18 19 18 17
11 11 11 12 12 12 12 12 13 13 13 13 13 14 14 14 15 15 15 15 15 15 16 16 16 16 16 16 16 16 16 16 17 17 17 18 18 18 18 18 19 18
10 11 11 11 11 12 12 12 12 12 12 12 12 13 13 13 14 14 14 15 15 15 15 15 16 16 16 16 16 16 16 16 16 16 17 17 17 17 17 17 17 18
10 10 10 10 11 11 11 11 12 12 12 12 12 12 12 13 13 13 14 14 14 14 14 15 15 16 16 17 16 16 16 16 16 16 16 16 16 16 17 17 17 17
9 9 9 10 10 10 10 11 11 11 12 12 12 12 12 12 12 13 13 13 14 14 14 14 15 15 16 16 16 17 16 16 16 16 16 16 16 16 16 16 17 18
8 9 9 9 9 9 10 10 10 11 11 11 11 12 12 12 12 12 13 13 13 13 14 14 14 15 15 16 16 16 17 16 16 16 16 16 16 16 16 16 17 18
8 8 9 9 9 9 9 9 10 10 10 11 11 11 11 11 12 12 12 13 13 13 14 14 14 15 15 15 16 16 16 17 16 16 16 16 16 16 15 16 17 18
8 8 8 9 9 9 9 9 9 10 10 10 10 11 11 11 11 11 11 12 13 13 13 14 14 15 15 15 15 16 16 16 16 16 16 16 16 16 15 16 17 18
8 8 8 9 9 9 9 9 9 10 10 10 10 10 11 11 11 11 11 11 12 12 13 13 14 15 15 15 15 15 16 16 16 16 16 16 16 15 16 16 17 17
7 8 8 9 9 10 10 10 10 10 10 10 10 10 10 10 10 10 10 10 11 11 12 13 14 14 15 15 15 15 15 15 15 16 16 16 16 16 16 16 17 17
6 7 7 8 9 10 10 10 10 10 10 10 9 9 9 9 10 10 10 10 10 10 11 12 13 14 14 15 15 15 15 15 15 15 15 16 16 16 16 17 17 17
5 5 6 7 7 8 9 9 9 9 10 9 9 9 8 8 9 9 9 10 10 10 10 11 11 12 14 14 15 15 15 15 14 14 15 15 16 16 17 17 17 17
Height
1512 1514 1516 1518 1521 1522 1524 1525 1526 1529 1533 1537 1540 1541 1541 1540 1540 1541 1542 1543 1543 1545 1546 1547 1548 1548 1548 1548 1548 1548 1548 1548 1549 1551 1552 1553 1554 1555 1557 1558 1558 1559
1510 1511 1514 1516 1518 1519 1520 1522 1523 1525 1529 1535 1539 1540 1539 1538 1537 1537 1538 1539 1540 1541 1542 1544 1546 1547 1548 1548 1548 1547 1547 1546 1547 1549 1550 1551 1552 1553 1554 1555 1556 1557
1507 1509 1511 1513 1515 1515 1517 1519 1520 1522 1525 1531 1536 1537 1537 1536 1535 1535 1534 1535 1536 1538 1539 1540 1542 1544 1546 1547 1548 1547 1546 1545 1545 1547 1548 1549 1550 1551 1552 1553 1554 1555
1505 1506 1508 1511 1513 1513 1514 1516 1518 1521 1523 1527 1530 1532 1533 1534 1533 1533 1532 1532 1533 1534 1536 1537 1539 1540 1541 1544 1546 1546 1546 1545 1545 1545 1546 1546 1547 1548 1550 1551 1552 1552
1503 1505 1506 1509 1511 1510 1511 1513 1516 1519 1522 1524 1526 1528 1530 1531 1531 1530 1530 1530 1530 1531 1533 1535 1536 1537 1537 1539 1542 1543 1544 1544 1544 1544 1544 1544 1545 1546 1547 1548 1548 1549
1501 1503 1505 1507 1508 1508 1508 1510 1513 1516 1519 1521 1523 1525 1527 1527 1527 1528 1527 1526 1526 1527 1529 1532 1534 1535 1535 1535 1536 1539 1542 1543 1543 1543 1542 1542 1542 1543 1544 1545 1545 1545
1501 1502 1503 1504 1506 1506 1506 1507 1510 1512 1515 1517 1519 1521 1523 1523 1523 1523 1523 1522 1522 1523 1526 1529 1531 1532 1534 1534 1533 1534 1538 1542 1543 1542 1541 1541 1541 1540 1541 1541 1541 1542
1500 1501 1501 1502 1503 1505 1505 1506 1507 1509 1511 1513 1514 1516 1518 1519 1520 1519 1518 1518 1519 1521 1523 1526 1527 1529 1530 1532 1532 1531 1533 1538 1541 1542 1541 1540 1539 1538 1537 1538 1538 1539
1498 1499 1499 1500 1500 1502 1503 1503 1504 1506 1507 1508 1509 1511 1513 1515 1516 1515 1514 1515 1516 1519 1521 1523 1524 1525 1526 1526 1527 1528 1530 1532 1536 1539 1540 1539 1538 1536 1536 1536 1536 1535
1495 1496 1496 1497 1497 1498 1499 1500 1502 1503 1504 1505 1505 1506 1508 1509 1511 1512 1512 1512 1513 1515 1518 1520 1522 1523 1522 1521 1521 1523 1526 1528 1530 1532 1535 1537 1537 1536 1535 1535 1534 1533
1493 1494 1494 1494 1495 1496 1497 1498 1499 1500 1502 1502 1502 1503 1504 1505 1506 1507 1508 1508 1510 1512 1514 1516 1519 1520 1520 1517 1517 1519 1522 1524 1525 1526 1528 1532 1534 1535 1535 1534 1533 1531
1491 1492 1493 1493 1493 1494 1495 1496 1496 1497 1498 1499 1499 1500 1500 1501 1502 1503 1504 1505 1507 1509 1510 1512 1514 1516 1516 1515 1514 1516 1518 1520 1521 1522 1523 1525 1527 1530 1532 1533 1532 1530
1490 1490 1491 1491 1492 1492 1492 1493 1493 1494 1494 1495 1496 1496 1497 1498 1498 1499 1500 1501 1503 1504 1505 1507 1509 1511 1512 1512 1512 1512 1514 1515 1517 1518 1520 1521 1521 1523 1526 1529 1530 1529
1489 1489 1489 1489 1489 1489 1489 1489 1489 1490 1490 1491 1492 1492 1493 1494 1494 1495 1496 1497 1498 1499 1500 1502 1504 1505 1507 1508 1508 1509 1509 1510 1512 1513 1515 1516 1517 1518 1519 1522 1524 1526
1487 1487 1487 1486 1486 1486 1486 1485 1485 1485 1486 1486 1487 1488 1489 1489 1490 1491 1492 1493 1494 1495 1496 1497 1498 1499 1500 1502 1503 1504 1504 1505 1506 1507 1509 1510 1512 1513 1514 1515 1518 1521
1484 1484 1484 1484 1483 1483 1482 1482 1481 1481 1481 1482 1483 1484 1484 1485 1486 1487 1487 1488 1489 1490 1491 1491 1491 1492 1494 1496 1497 1498 1499 1500 1501 1502 1503 1505 1506 1508 1509 1510 1512 1515
1481 1481 1481 1480 1480 1480 1479 1478 1478 1478 1478 1479 1479 1480 1481 1481 1482 1482 1482 1483 1484 1484 1485 1486 1486 1487 1488 1490 1491 1492 1493 1494 1495 1497 1498 1500 1501 1502 1503 1505 1506 1509
1478 1478 1477 1477 1476 1476 1475 1474 1474 1474 1474 1475 1476 1477 1477 1477 1477 1477 1477 1477 1478 1478 1479 1479 1480 1481 1482 1484 1485 1486 1488 1488 1489 1491 1492 1494 1495 1497 1498 1499 1500 1502
1474 1474 1473 1473 1472 1471 1471 1471 1470 1470 1470 1470 1471 1472 1473 1473 1472 1472 1472 1472 1472 1472 1473 1473 1474 1475 1476 1478 1479 1481 1482 1483 1484 1485 1486 1488 1489 1491 1492 1494 1494 1495
1470 1469 1469 1468 1468 1467 1467 1467 1467 1466 1466 1466 1466 1467 1467 1467 1467 1467 1467 1467 1467 1466 1466 1466 1467 1468 1470 1472 1473 1475 1477 1478 1479 1480 1481 1482 1483 1485 1486 1488 1489 1490
1466 1465 1464 1464 1464 1464 1463 1463 1463 1462 1462 1462 1462 1462 1462 1462 1462 1462 1462 1462 1462 1461 1460 1460 1460 1462 1464 1466 1468 1470 1472 1473 1473 1473 1474 1475 1477 1478 1480 1481 1483 1485
1463 1462 1461 1460 1460 1459 1459 1459 1458 1458 1458 1458 1458 1457 1457 1456 1456 1456 1456 1456 1456 1456 1455 1454 1454 1456 1458 1460 1462 1465 1466 1467 1467 1467 1468 1469 1470 1473 1474 1476 1477 1479
1459 1458 1457 1456 1455 1454 1454 1454 1454 1453 1454 1454 1453 1451 1451 1450 1450 1450 1449 1449 1449 1450 1449 1448 1448 1450 1452 1454 1456 1458 1460 1461 1461 1462 1463 1463 1464 1467 1468 1469 1471 1473
1455 1454 1453 1451 1451 1450 1449 1449 1448 1448 1448 1448 1447 1446 1445 1444 1444 1443 1443 1443 1442 1443 1443 1442 1442 1444 1446 1448 1449 1451 1453 1454 1455 1456 1456 1457 1458 1460 1461 1462 1463 1465
1451 1450 1449 1447 1446 1446 1445 1444 1443 1443 1443 1443 1442 1441 1439 1438 1437 1436 1435 1435 1435 1435 1436 1436 1436 1436 1439 1441 1443 1444 1446 1447 1448 1449 1449 1450 1452 1453 1454 1455 1456 1458
1447 1446 1445 1443 1442 1441 1440 1440 1439 1438 1437 1437 1436 1435 1433 1432 1431 1430 1428 1427 1428 1428 1428 1429 1429 1429 1431 1433 1435 1437 1439 1440 1440 1441 1442 1444 1446 1447 1447 1448 1450 1452
Wind_Speed
35 35 33 31 29 29 31 31 30 30 33 33 32 37 40 39 37 35 34 34 33 34 36 40 40 37 34 32 31 31 32 31 31 32 33 34 34 37 41 41 37 33
33 34 34 32 28 25 26 28 26 27 32 36 34 36 40 41 38 34 32 31 31 32 34 38 40 39 37 35 33 33 32 32 32 32 33 33 33 35 39 41 39 34
32 32 34 34 29 22 22 24 25 26 30 33 35 37 40 42 41 36 31 28 29 31 32 35 38 40 39 37 35 35 34 34 33 34 34 34 32 32 35 39 39 35
32 32 33 33 29 25 25 25 26 27 28 31 35 38 38 39 40 36 31 27 28 30 32 34 36 38 39 39 38 36 36 36 35 34 35 35 34 33 33 36 39 37
33 33 33 32 30 27 28 29 30 30 30 32 37 38 37 37 37 36 32 27 26 30 33 35 37 38 38 38 39 39 38 38 37 37 37 37 36 36 35 35 38 39
33 34 34 33 31 30 30 32 33 33 32 35 37 36 35 35 36 35 31 26 25 30 33 34 35 38 39 36 36 38 39 40 40 39 40 40 39 39 38 37 38 39
29 31 32 33 32 31 32 34 35 34 35 36 37 37 36 36 37 34 28 24 26 29 32 33 32 33 35 34 32 32 35 40 41 41 41 42 41 41 41 40 40 40
24 27 30 32 33 33 32 33 35 38 39 39 38 38 39 38 38 34 29 29 32 31 32 34 32 29 30 31 30 30 32 37 41 42 43 42 42 43 43 42 42 41
19 22 25 28 31 32 32 32 34 38 40 40 39 39 40 41 38 35 33 34 36 35 35 36 35 32 29 28 28 28 31 34 38 41 44 44 44 45 45 45 43 42
14 15 18 22 26 29 30 30 32 35 38 40 41 41 42 42 41 38 37 37 38 39 40 40 40 38 32 29 27 27 30 34 36 39 42 45 46 46 46 46 45 45
13 14 15 16 19 22 24 27 29 32 35 37 41 43 44 44 43 41 40 41 42 44 46 44 43 43 39 34 32 31 32 34 36 38 40 41 44 47 48 48 48 47
13 14 16 16 17 18 19 20 22 24 25 28 33 37 40 42 42 40 41 43 44 46 49 48 46 45 43 39 36 35 34 34 35 38 39 39 41 45 48 50 51 50
12 13 14 15 17 18 19 19 19 19 18 20 23 27 31 34 36 37 39 42 44 45 47 48 47 46 45 42 39 37 37 36 35 37 39 40 39 40 45 50 52 53
13 13 13 14 15 16 18 19 20 20 19 19 19 21 24 27 30 33 35 38 42 44 46 48 48 47 46 45 44 42 40 40 39 39 40 41 41 40 42 47 51 54
14 15 15 15 16 16 17 18 19 19 20 20 21 21 22 23 25 28 31 34 37 39 43 45 46 46 45 45 46 46 45 45 44 44 43 42 43 43 43 45 48 52
14 16 16 16 17 17 17 18 19 19 19 20 21 22 23 23 23 25 28 32 35 37 39 42 44 45 45 45 46 47 47 48 48 48 47 46 46 46 46 46 47 50
15 16 18 18 19 19 19 19 20 19 19 19 20 22 23 23 24 25 26 29 32 35 38 41 43 45 46 46 45 45 46 47 49 50 50 50 49 48 47 46 46 47
15 17 18 19 20 20 21 21 22 22 22 21 22 22 23 24 25 26 27 28 29 32 36 39 42 43 44 45 45 44 44 45 48 50 51 51 51 49 46 45 46 47
17 17 17 18 19 20 21 22 23 25 25 25 26 25 26 27 27 27 28 29 30 31 33 36 38 40 41 42 43 43 42 42 44 48 50 51 51 50 48 46 48 51
18 19 19 20 20 21 22 23 23 25 27 28 29 29 29 29 30 30 30 30 31 32 32 34 36 37 38 39 41 41 41 41 42 45 49 51 52 53 53 49 48 50
22 23 23 23 24 25 25 26 26 27 28 29 30 31 31 31 31 32 33 33 34 33 33 34 34 35 36 37 39 41 42 43 45 47 49 51 53 55 54 50 47 47
25 26 27 27 28 28 29 30 30 31 31 32 33 34 34 33 31 31 32 35 36 36 37 37 35 34 34 36 38 40 43 45 46 47 49 52 54 54 53 50 47 48
27 28 30 30 31 31 32 32 32 33 33 33 35 37 38 38 36 33 32 33 36 38 39 41 40 37 35 36 37 39 42 45 47 48 49 52 53 54 52 51 50 50
28 29 31 32 33 33 33 33 32 32 32 32 34 36 38 40 41 39 36 34 35 37 39 42 44 43 40 38 38 39 41 44 47 50 52 52 53 54 54 54 53 52
30 30 32 33 34 34 33 33 32 32 32 32 33 35 37 38 40 43 43 40 37 37 38 41 45 47 45 43 40 39 40 43 46 50 54 55 55 56 56 57 56 55
30 31 31 32 33 33 32 32 32 32 33 33 35 36 37 37 38 40 43 45 43 41 41 41 44 47 48 48 45 42 41 42 45 50 53 55 56 57 57 58 58 57
Wind_Direction
227 229 231 233 235 240 241 240 246 255 257 256 251 248 250 251 251 250 251 253 253 248 241 238 239 240 239 235 232 230 229 231 231 230 232 233 233 230 227 227 227 225
228 230 233 234 234 241 246 245 253 261 256 254 256 250 246 249 249 247 247 249 250 248 243 240 240 242 243 240 236 233 230 230 229 228 229 229 229 229 227 227 226 225
229 230 231 231 233 246 257 253 257 261 250 246 252 251 248 249 249 247 245 246 249 250 246 241 239 240 243 243 241 237 233 231 229 227 226 225 226 228 229 229 228 227
232 232 231 231 235 247 256 254 254 254 246 240 245 249 250 250 251 250 249 249 252 253 250 246 242 240 241 243 245 243 239 235 232 230 228 226 226 228 230 231 231 231
234 236 237 237 239 245 248 247 246 244 241 240 244 248 249 251 252 252 253 254 254 255 254 251 246 241 238 238 242 245 244 240 235 233 232 231 229 229 231 232 232 232
236 239 243 243 242 240 238 236 236 236 235 237 242 245 246 249 251 250 251 256 258 256 255 254 251 245 238 235 238 243 247 246 240 236 236 236 233 233 232 232 232 232
239 241 243 244 241 235 231 229 227 227 229 233 238 241 243 246 248 247 250 260 262 256 253 253 253 249 244 240 239 243 250 253 248 242 239 239 237 235 235 234 233 232
249 248 247 246 243 240 238 234 229 226 226 231 237 241 243 245 247 249 250 258 261 254 250 250 249 247 246 245 246 249 253 255 255 249 245 243 242 240 237 236 236 235
262 260 259 257 252 249 245 239 232 229 228 232 237 242 243 242 246 250 250 253 256 251 247 248 246 241 241 246 255 262 261 257 256 255 251 248 246 245 242 240 238 238
271 269 268 266 261 257 251 241 236 234 234 236 239 243 243 241 243 249 251 251 250 247 245 247 245 241 241 249 260 267 269 263 258 255 254 252 251 249 248 245 242 240
276 275 273 269 265 262 257 250 246 246 246 247 246 246 245 243 242 246 249 249 247 245 246 247 246 244 247 255 259 260 265 266 261 256 254 256 256 254 252 251 249 246
282 284 281 278 274 269 264 261 259 256 254 252 251 251 250 248 248 248 249 248 247 246 246 247 248 247 249 253 255 255 258 262 263 258 254 255 259 259 256 253 252 252
280 284 284 283 281 276 273 273 272 270 264 256 253 253 253 253 254 254 253 250 248 247 247 248 249 251 252 251 249 249 252 255 259 259 257 257 259 262 263 258 254 254
278 277 276 276 276 276 275 275 275 274 271 266 262 258 254 253 253 254 255 254 251 249 249 250 251 253 254 253 249 247 247 249 252 256 258 260 260 262 266 265 259 256
282 279 276 272 271 270 270 270 272 273 272 271 269 265 259 256 254 254 253 252 251 249 248 249 251 252 252 252 250 249 247 245 245 248 252 256 258 260 263 266 266 261
284 281 279 276 274 271 268 265 266 270 273 273 271 269 267 263 259 256 254 252 250 248 248 249 250 251 250 250 250 250 250 248 246 246 247 250 252 256 258 261 265 265
289 285 282 281 279 277 274 269 267 268 272 275 275 273 271 269 265 261 259 257 254 251 250 250 251 252 251 250 249 249 250 251 249 248 249 249 249 252 256 258 260 263
292 290 288 286 284 282 279 274 271 269 269 272 276 276 275 274 271 268 264 263 262 259 255 253 252 253 253 251 250 249 250 251 251 249 249 250 250 251 253 258 260 261
295 293 290 287 285 284 281 276 271 268 266 266 269 271 273 273 272 271 269 267 267 265 262 259 257 255 254 252 250 249 250 251 250 249 248 249 250 250 251 256 260 261
291 289 287 285 283 281 279 277 273 269 266 265 265 266 267 269 269 268 267 266 267 267 266 263 261 259 256 254 251 249 250 252 253 252 250 249 249 248 248 254 258 259
286 284 283 282 281 280 279 277 275 273 270 269 268 267 266 266 266 266 265 263 263 264 265 263 260 258 257 256 254 252 251 254 255 253 251 249 248 247 247 251 253 255
286 286 284 283 282 283 282 280 278 277 274 273 271 269 267 265 263 263 265 264 261 260 261 261 256 253 254 255 254 253 253 254 252 250 249 248 246 246 249 251 250 251
292 290 288 286 286 286 285 285 285 283 281 278 276 272 268 265 262 261 263 264 263 260 259 259 256 251 250 250 250 250 252 253 250 247 247 246 244 245 249 252 251 250
304 300 295 291 289 288 287 287 287 286 284 283 281 278 273 267 263 260 259 259 262 261 259 258 256 252 249 249 247 246 248 251 251 248 246 246 246 245 247 250 250 249
313 307 302 297 293 289 287 286 285 284 285 285 285 283 279 272 266 262 258 255 256 259 259 257 255 253 250 249 247 245 246 250 252 250 248 248 248 247 246 247 249 248
317 312 307 303 298 293 289 288 287 286 287 289 288 285 281 276 269 264 260 256 254 255 257 256 255 253 250 248 246 244 245 248 251 252 250 248 248 247 246 246 247 246